When you browse on this site, cookies collect data to enhance your experience and personalize the content and advertising you see.
Visit our Privacy Policy to learn more. By continuing to use the site, you agree to this use of cookies and data.
EN

Hourly Weather Hrestivka (Kirovckoe)

Today, 11 August, Tuesday

Time Temperature Precipitation Wind Pressure Humidity
00:00 +24°C° 0 mm 2 mps 738 mmHg 53%
01:00 +23°C° 0 mm 1 mps 738 mmHg 55%
02:00 +23°C° 0 mm 1 mps 738 mmHg 56%
03:00 +22°C° 0 mm 1 mps 738 mmHg 60%
04:00 +22°C° 0 mm 1 mps 738 mmHg 60%
05:00 +21°C° 0 mm 0 mps 738 mmHg 59%
06:00 +21°C° 0 mm 0 mps 738 mmHg 59%
07:00 +22°C° 0 mm 0 mps 738 mmHg 56%
08:00 +23°C° 0 mm 0 mps 738 mmHg 53%
09:00 +25°C° 0 mm 0 mps 738 mmHg 46%
10:00 +28°C° 0 mm 1 mps 738 mmHg 43%
11:00 +28°C° 0 mm 1 mps 738 mmHg 41%
12:00 +29°C° 0 mm 2 mps 739 mmHg 38%
13:00 +28°C° 0.4 mm 2 mps 738 mmHg 44%
14:00 +27°C° 0.4 mm 2 mps 738 mmHg 50%
15:00 +26°C° 0.4 mm 3 mps 738 mmHg 55%
16:00 +26°C° 0.2 mm 2 mps 738 mmHg 54%
17:00 +26°C° 0.2 mm 2 mps 738 mmHg 53%
18:00 +26°C° 0.2 mm 1 mps 738 mmHg 52%
19:00 +25°C° 0.6 mm 2 mps 738 mmHg 58%
20:00 +23°C° 0.6 mm 2 mps 738 mmHg 64%
21:00 +21°C° 0.6 mm 2 mps 738 mmHg 70%
22:00 +20°C° 0.3 mm 2 mps 738 mmHg 73%
23:00 +20°C° 0.3 mm 2 mps 738 mmHg 76%

Tomorrow, 12 August, Wednesday

Time Temperature Precipitation Wind Pressure Humidity
00:00 +21°C° 0.3 mm 1 mps 738 mmHg 79%
01:00 +20°C° 0 mm 1 mps 737 mmHg 79%
02:00 +20°C° 0 mm 1 mps 737 mmHg 79%
03:00 +19°C° 0 mm 1 mps 737 mmHg 79%
04:00 +19°C° 0 mm 1 mps 737 mmHg 79%
05:00 +19°C° 0 mm 1 mps 737 mmHg 79%
06:00 +19°C° 0 mm 1 mps 737 mmHg 80%
07:00 +21°C° 0 mm 1 mps 737 mmHg 73%
08:00 +23°C° 0 mm 1 mps 736 mmHg 65%
09:00 +24°C° 0 mm 2 mps 736 mmHg 58%
10:00 +26°C° 0 mm 2 mps 737 mmHg 52%
11:00 +27°C° 0 mm 3 mps 737 mmHg 46%
12:00 +29°C° 0 mm 3 mps 737 mmHg 40%
13:00 +29°C° 0 mm 3 mps 737 mmHg 41%
14:00 +29°C° 0 mm 4 mps 736 mmHg 41%
15:00 +29°C° 0 mm 4 mps 736 mmHg 41%
16:00 +28°C° 0 mm 4 mps 736 mmHg 41%
17:00 +28°C° 0 mm 5 mps 736 mmHg 41%
18:00 +28°C° 0 mm 5 mps 736 mmHg 40%
19:00 +26°C° 0 mm 4 mps 737 mmHg 47%
20:00 +23°C° 0 mm 4 mps 737 mmHg 53%
21:00 +21°C° 0 mm 4 mps 737 mmHg 59%
22:00 +20°C° 0 mm 4 mps 737 mmHg 64%
23:00 +19°C° 0 mm 4 mps 737 mmHg 68%

Day after tomorrow, 13 August, Thursday

Time Temperature Precipitation Wind Pressure Humidity
00:00 +18°C° 0 mm 3 mps 737 mmHg 72%
01:00 +18°C° 0 mm 3 mps 737 mmHg 71%
02:00 +17°C° 0 mm 3 mps 737 mmHg 71%
03:00 +16°C° 0 mm 3 mps 737 mmHg 70%
04:00 +16°C° 0 mm 3 mps 737 mmHg 71%
05:00 +14°C° 0 mm 3 mps 738 mmHg 72%
06:00 +14°C° 0 mm 3 mps 738 mmHg 73%
07:00 +16°C° 0 mm 3 mps 738 mmHg 66%
08:00 +18°C° 0 mm 3 mps 738 mmHg 59%
09:00 +20°C° 0 mm 3 mps 738 mmHg 53%
10:00 +21°C° 0 mm 4 mps 738 mmHg 48%
11:00 +22°C° 0 mm 4 mps 738 mmHg 44%
12:00 +23°C° 0 mm 4 mps 738 mmHg 39%
13:00 +23°C° 0 mm 4 mps 738 mmHg 38%
14:00 +25°C° 0 mm 5 mps 738 mmHg 38%
15:00 +25°C° 0 mm 5 mps 738 mmHg 37%
16:00 +25°C° 0 mm 5 mps 738 mmHg 38%
17:00 +23°C° 0 mm 5 mps 738 mmHg 39%
18:00 +23°C° 0 mm 5 mps 738 mmHg 40%
19:00 +22°C° 0 mm 5 mps 738 mmHg 43%
20:00 +20°C° 0 mm 4 mps 738 mmHg 46%
21:00 +19°C° 0 mm 3 mps 738 mmHg 49%
22:00 +18°C° 0 mm 3 mps 738 mmHg 54%
23:00 +17°C° 0 mm 3 mps 738 mmHg 58%

14 August, Friday

Time Temperature Precipitation Wind Pressure Humidity
00:00 +17°C° 0 mm 3 mps 738 mmHg 62%
01:00 +16°C° 0 mm 3 mps 738 mmHg 66%
02:00 +15°C° 0 mm 2 mps 738 mmHg 70%
03:00 +15°C° 0 mm 2 mps 738 mmHg 74%
04:00 +14°C° 0 mm 2 mps 738 mmHg 74%
05:00 +14°C° 0 mm 2 mps 738 mmHg 75%
06:00 +14°C° 0 mm 2 mps 738 mmHg 76%
07:00 +16°C° 0 mm 2 mps 739 mmHg 68%
08:00 +18°C° 0 mm 3 mps 739 mmHg 60%
09:00 +20°C° 0 mm 3 mps 739 mmHg 52%
10:00 +20°C° 0 mm 3 mps 739 mmHg 48%
11:00 +21°C° 0 mm 3 mps 739 mmHg 44%
12:00 +22°C° 0 mm 3 mps 739 mmHg 39%
13:00 +22°C° 0 mm 3 mps 739 mmHg 40%
14:00 +22°C° 0 mm 3 mps 739 mmHg 41%
15:00 +22°C° 0 mm 4 mps 738 mmHg 42%
16:00 +21°C° 0 mm 4 mps 738 mmHg 43%
17:00 +21°C° 0 mm 4 mps 738 mmHg 44%
18:00 +21°C° 0 mm 4 mps 738 mmHg 45%
19:00 +20°C° 0 mm 3 mps 738 mmHg 48%
20:00 +19°C° 0 mm 3 mps 739 mmHg 51%
21:00 +18°C° 0 mm 3 mps 739 mmHg 53%
22:00 +17°C° 0 mm 3 mps 739 mmHg 56%
23:00 +16°C° 0 mm 3 mps 739 mmHg 59%

15 August, Saturday

Time Temperature Precipitation Wind Pressure Humidity
00:00 +14°C° 0 mm 3 mps 739 mmHg 62%
01:00 +13°C° 0 mm 3 mps 739 mmHg 67%
02:00 +13°C° 0 mm 3 mps 739 mmHg 73%
03:00 +13°C° 0 mm 2 mps 739 mmHg 78%
04:00 +12°C° 0 mm 3 mps 739 mmHg 78%
05:00 +12°C° 0 mm 3 mps 739 mmHg 77%
06:00 +11°C° 0 mm 3 mps 739 mmHg 77%
07:00 +13°C° 0 mm 3 mps 740 mmHg 68%
08:00 +15°C° 0 mm 4 mps 740 mmHg 58%
09:00 +18°C° 0 mm 4 mps 740 mmHg 49%
10:00 +19°C° 0 mm 4 mps 740 mmHg 44%
11:00 +20°C° 0 mm 4 mps 740 mmHg 39%
12:00 +21°C° 0 mm 4 mps 740 mmHg 34%
13:00 +22°C° 0 mm 4 mps 740 mmHg 34%
14:00 +22°C° 0 mm 5 mps 740 mmHg 33%
15:00 +22°C° 0 mm 5 mps 740 mmHg 33%
16:00 +22°C° 0 mm 5 mps 740 mmHg 34%
17:00 +21°C° 0 mm 5 mps 740 mmHg 36%
18:00 +20°C° 0 mm 5 mps 740 mmHg 38%
19:00 +19°C° 0 mm 4 mps 740 mmHg 42%
20:00 +18°C° 0 mm 3 mps 741 mmHg 46%
21:00 +16°C° 0 mm 3 mps 741 mmHg 50%
22:00 +14°C° 0 mm 3 mps 741 mmHg 52%
23:00 +14°C° 0 mm 3 mps 741 mmHg 54%

16 August, Sunday

Time Temperature Precipitation Wind Pressure Humidity
00:00 +13°C° 0 mm 3 mps 741 mmHg 56%
01:00 +14°C° 0 mm 2 mps 741 mmHg 57%
02:00 +13°C° 0 mm 2 mps 741 mmHg 58%
03:00 +13°C° 0 mm 2 mps 741 mmHg 59%
04:00 +12°C° 0 mm 2 mps 741 mmHg 60%
05:00 +12°C° 0 mm 2 mps 741 mmHg 61%
06:00 +12°C° 0 mm 2 mps 741 mmHg 62%
07:00 +13°C° 0 mm 3 mps 741 mmHg 56%
08:00 +16°C° 0 mm 3 mps 741 mmHg 51%
09:00 +18°C° 0 mm 3 mps 741 mmHg 45%
10:00 +19°C° 0 mm 4 mps 741 mmHg 42%
11:00 +20°C° 0 mm 4 mps 741 mmHg 38%
12:00 +21°C° 0 mm 4 mps 741 mmHg 34%
13:00 +22°C° 0 mm 4 mps 741 mmHg 32%
14:00 +23°C° 0 mm 4 mps 741 mmHg 30%
15:00 +23°C° 0 mm 4 mps 741 mmHg 29%
16:00 +23°C° 0 mm 4 mps 741 mmHg 29%
17:00 +23°C° 0 mm 4 mps 740 mmHg 30%
18:00 +22°C° 0 mm 4 mps 740 mmHg 30%
19:00 +20°C° 0 mm 4 mps 740 mmHg 35%
20:00 +19°C° 0 mm 4 mps 740 mmHg 39%
21:00 +17°C° 0 mm 4 mps 741 mmHg 44%
22:00 +16°C° 0 mm 3 mps 741 mmHg 46%
23:00 +14°C° 0 mm 3 mps 741 mmHg 48%
Show more